Powrót do katalogu

STARLINK-3143

AktywnyŁącznośćVLEO
NORAD 49738·PAYLOAD·🇺🇸 United States

Wystrzelony Dec 2, 2021 z Cape Canaveral Space Force Station

Loading…

Następne Przeloty (najbliższe 24 godziny)

TLE

ŚwieżeSource: CelesTrak SupGP

Epoka: Sep 14, 2026, 21:06 UTC

1 49738C 21115Q   26257.87965278  .00014771  00000+0  80931-3 0  2575
2 49738  53.2165  17.3166 0001540  72.5183 242.2418 15.13697902    12

Śledź STARLINK-3143 w czasie rzeczywistym z AllMySat

Download on the App Store